This is the latest recevied weather packets stored in our database for station/object KA2FNK. If no packets are shown the sender has not sent any weather packets the latest 1 day(s).
| Time | Temp. | Humidity | Pressure | Rain* | Wind** | Luminosity | Snow |
|---|---|---|---|---|---|---|---|
| 1777981691 | 10° C | 78% | 1008.9 hPa | 0.25 mm | 0.89 m/s, 11° | - | - |
| 1777981390 | 10.56° C | 77% | 1009 hPa | 0 mm | 0 m/s | - | - |
| 1777981089 | 10.56° C | 75% | 1008.9 hPa | 0 mm | 1.34 m/s, 57° | - | - |
| 1777980788 | 10.56° C | 75% | 1008.8 hPa | 0 mm | 0.89 m/s, 82° | - | - |
| 1777980487 | 10.56° C | 74% | 1009 hPa | 0 mm | 1.79 m/s, 47° | - | - |
| 1777980186 | 10° C | 76% | 1008.9 hPa | 0 mm | 1.79 m/s, 11° | - | - |
| 1777979885 | 10° C | 76% | 1008.8 hPa | 0 mm | 0 m/s | - | - |
| 1777979584 | 10° C | 77% | 1009 hPa | 0 mm | 0.45 m/s, 45° | - | - |
| 1777979283 | 10° C | 77% | 1008.7 hPa | 0 mm | 0 m/s | - | - |
| 1777978982 | 10° C | 78% | 1008.7 hPa | 0 mm | 3.13 m/s, 60° | - | - |
| 1777978681 | 10° C | 79% | 1008.4 hPa | 0 mm | 0.45 m/s, 59° | - | - |
| 1777978380 | 10° C | 80% | 1008.6 hPa | 0 mm | 1.34 m/s, 14° | - | - |
| 1777978079 | 10° C | 80% | 1008.6 hPa | 0 mm | 0.45 m/s, 59° | - | - |
| 1777977778 | 10° C | 80% | 1008.6 hPa | 0 mm | 1.79 m/s, 94° | - | - |
| 1777977477 | 10° C | 82% | 1008.4 hPa | 0 mm | 3.58 m/s, 29° | - | - |
| 1777977176 | 10° C | 83% | 1008.5 hPa | 0 mm | 0.45 m/s, 344° | - | - |
| 1777976875 | 10° C | 83% | 1008.6 hPa | 0 mm | 0.45 m/s, 1° | - | - |
| 1777976574 | 9.44° C | 84% | 1008.7 hPa | 0 mm | 0.45 m/s, 22° | - | - |
| 1777976273 | 9.44° C | 85% | 1008.6 hPa | 0 mm | 0.45 m/s, 28° | - | - |
| 1777975972 | 9.44° C | 85% | 1008.7 hPa | 0 mm | 1.34 m/s, 59° | - | - |
| 1777975671 | 9.44° C | 85% | 1008.7 hPa | 0 mm | 0 m/s | - | - |
| 1777975370 | 9.44° C | 86% | 1008.8 hPa | 0 mm | 1.79 m/s, 14° | - | - |
| 1777975069 | 9.44° C | 86% | 1009.1 hPa | 0 mm | 2.68 m/s, 25° | - | - |
| 1777974768 | 9.44° C | 86% | 1009.2 hPa | 0 mm | 0 m/s | - | - |
| 1777974467 | 9.44° C | 86% | 1009 hPa | 0 mm | 0 m/s | - | - |
* Rain latest hour (hover to see other rain measurements)
** Current wind speed in m/s (hover to see current wind gust speed)